User: anonymous   Login
Location: Unspecified
(0.0000°N, 0.0000°E)
Time: 00:58:27
(UTC+00:00)
Language:

MUNIN - Orbit

View from above orbital plane
View from above orbital plane
View from above satellite
View from above satellite

Ground track
Ground track

The orbit data is extracted from the following two-line orbital elements,

1 26621U 00075C   18173.21563937 -.00000149 +00000-0 -12305-3 0  9995
2 26621 095.4044 053.1677 0712127 204.3991 152.1823 13.04141284836627
Epoch (UTC): 22 June 2018 05:10:31
Eccentricity: 0.0712127
inclination: 95.4044°
perigee height: 703 km
apogee height: 1789 km
right ascension of ascending node: 53.1677°
argument of perigee: 204.3991°
revolutions per day: 13.04141284
mean anomaly at epoch: 152.1823°
orbit number at epoch: 83662

The dashed part of the orbit path shows where the satellite is in the earth's shadow,  

DLR